Time,TemperatureF,DewpointF,PressureIn,WindDirection,WindDirectionDegrees,WindSpeedMPH,WindSpeedGustMPH,Humidity,HourlyPrecipIn,Conditions,Clouds,dailyrainin,SoftwareType,DateUTC
2013-08-10 00:00:00,70.3,23.4,30.12,West,279,2.0,6.0,17,0.00,,,0.00,Wunderground v.1.15,2013-08-10 07:00:00,
2013-08-10 00:10:00,70.5,22.1,30.12,West,273,2.0,2.0,16,0.00,,,0.00,Wunderground v.1.15,2013-08-10 07:10:00,
2013-08-10 00:15:00,70.7,22.3,30.12,West,271,2.0,6.0,16,0.00,,,0.00,Wunderground v.1.15,2013-08-10 07:15:00,
2013-08-10 00:20:00,70.8,22.3,30.12,West,272,2.0,6.0,16,0.00,,,0.00,Wunderground v.1.15,2013-08-10 07:20:00,
2013-08-10 00:25:00,70.9,22.4,30.12,West,271,2.0,6.0,16,0.00,,,0.00,Wunderground v.1.15,2013-08-10 07:25:00,
2013-08-10 00:30:00,71.2,21.1,30.12,West,274,3.0,6.0,15,0.00,,,0.00,Wunderground v.1.15,2013-08-10 07:30:00,
2013-08-10 00:40:00,71.3,21.2,30.11,West,274,4.0,6.0,15,0.00,,,0.00,Wunderground v.1.15,2013-08-10 07:40:00,
2013-08-10 00:50:00,71.3,19.6,30.11,West,276,3.0,3.0,14,0.00,,,0.00,Wunderground v.1.15,2013-08-10 07:50:00,
2013-08-10 01:00:00,70.5,19.0,30.12,West,271,1.0,8.0,14,0.00,,,0.00,Wunderground v.1.15,2013-08-10 08:00:00,
2013-08-10 01:05:00,70.2,18.7,30.12,West,271,2.0,8.0,14,0.00,,,0.00,Wunderground v.1.15,2013-08-10 08:05:00,
2013-08-10 01:10:00,70.1,16.9,30.12,West,271,2.0,8.0,13,0.00,,,0.00,Wunderground v.1.15,2013-08-10 08:10:00,
2013-08-10 01:15:00,70.1,16.9,30.11,West,271,2.0,8.0,13,0.00,,,0.00,Wunderground v.1.15,2013-08-10 08:15:00,
2013-08-10 01:20:00,70.1,16.9,30.11,West,271,3.0,8.0,13,0.00,,,0.00,Wunderground v.1.15,2013-08-10 08:20:00,
2013-08-10 01:30:00,70.3,15.2,30.11,West,269,3.0,8.0,12,0.00,,,0.00,Wunderground v.1.15,2013-08-10 08:30:00,
2013-08-10 01:35:00,70.2,13.2,30.12,West,270,3.0,8.0,11,0.00,,,0.00,Wunderground v.1.15,2013-08-10 08:35:00,
2013-08-10 01:45:00,70.2,13.2,30.11,West,271,2.0,6.0,11,0.00,,,0.00,Wunderground v.1.15,2013-08-10 08:45:00,
2013-08-10 01:50:00,69.9,10.8,30.11,West,271,2.0,2.0,10,0.00,,,0.00,Wunderground v.1.15,2013-08-10 08:50:00,
2013-08-10 02:00:00,68.9,12.2,30.11,West,271,0.0,6.0,11,0.00,,,0.00,Wunderground v.1.15,2013-08-10 09:00:00,
2013-08-10 02:05:00,68.5,9.7,30.11,West,271,0.0,8.0,10,0.00,,,0.00,Wunderground v.1.15,2013-08-10 09:05:00,
2013-08-10 02:10:00,68.0,11.5,30.11,West,271,0.0,8.0,11,0.00,,,0.00,Wunderground v.1.15,2013-08-10 09:10:00,
2013-08-10 02:15:00,67.4,8.9,30.11,West,271,0.0,8.0,10,0.00,,,0.00,Wunderground v.1.15,2013-08-10 09:15:00,
2013-08-10 02:20:00,67.1,8.6,30.11,West,271,0.0,8.0,10,0.00,,,0.00,Wunderground v.1.15,2013-08-10 09:20:00,
2013-08-10 02:30:00,67.7,9.1,30.11,West,261,2.0,8.0,10,0.00,,,0.00,Wunderground v.1.15,2013-08-10 09:30:00,
2013-08-10 02:35:00,67.2,8.7,30.11,West,261,3.0,8.0,10,0.00,,,0.00,Wunderground v.1.15,2013-08-10 09:35:00,
2013-08-10 02:45:00,67.1,8.6,30.11,West,261,3.0,6.0,10,0.00,,,0.00,Wunderground v.1.15,2013-08-10 09:45:00,
2013-08-10 02:50:00,67.7,6.7,30.11,West,261,2.0,2.0,9,0.00,,,0.00,Wunderground v.1.15,2013-08-10 09:50:00,
2013-08-10 02:55:00,68.3,4.6,30.11,West,261,1.0,6.0,8,0.00,,,0.00,Wunderground v.1.15,2013-08-10 09:55:00,
2013-08-10 03:00:00,68.7,4.9,30.11,West,261,0.0,6.0,8,0.00,,,0.00,Wunderground v.1.15,2013-08-10 10:00:00,
2013-08-10 03:05:00,68.5,4.8,30.11,West,261,0.0,6.0,8,0.00,,,0.00,Wunderground v.1.15,2013-08-10 10:05:00,
2013-08-10 03:15:00,68.8,5.0,30.11,West,261,1.0,2.0,8,0.00,,,0.00,Wunderground v.1.15,2013-08-10 10:15:00,
2013-08-10 03:20:00,69.0,5.1,30.12,West,267,2.0,2.0,8,0.00,,,0.00,Wunderground v.1.15,2013-08-10 10:20:00,
2013-08-10 03:30:00,68.1,4.5,30.12,West,262,3.0,5.0,8,0.00,,,0.00,Wunderground v.1.15,2013-08-10 10:30:00,
2013-08-10 03:35:00,67.5,6.6,30.12,West,272,4.0,5.0,9,0.00,,,0.00,Wunderground v.1.15,2013-08-10 10:35:00,
2013-08-10 03:40:00,67.7,6.7,30.12,West,273,3.0,5.0,9,0.00,,,0.00,Wunderground v.1.15,2013-08-10 10:40:00,
2013-08-10 03:45:00,68.2,4.5,30.12,West,273,3.0,5.0,8,0.00,,,0.00,Wunderground v.1.15,2013-08-10 10:45:00,
2013-08-10 03:50:00,68.7,4.9,30.12,West,273,2.0,2.0,8,0.00,,,0.00,Wunderground v.1.15,2013-08-10 10:50:00,
2013-08-10 04:00:00,68.1,4.5,30.12,West,263,3.0,6.0,8,0.00,,,0.00,Wunderground v.1.15,2013-08-10 11:00:00,
2013-08-10 04:05:00,67.0,6.2,30.12,WSW,258,5.0,7.0,9,0.00,,,0.00,Wunderground v.1.15,2013-08-10 11:05:00,
2013-08-10 04:10:00,66.6,5.9,30.12,West,266,6.0,6.0,9,0.00,,,0.00,Wunderground v.1.15,2013-08-10 11:10:00,
2013-08-10 04:15:00,67.4,6.5,30.12,West,262,5.0,9.0,9,0.00,,,0.00,Wunderground v.1.15,2013-08-10 11:15:00,
2013-08-10 04:20:00,66.4,5.8,30.12,WSW,258,1.0,1.0,9,0.00,,,0.00,Wunderground v.1.15,2013-08-10 11:20:00,
2013-08-10 04:30:00,65.1,7.1,30.12,SW,225,1.0,9.0,10,0.00,,,0.00,Wunderground v.1.15,2013-08-10 11:30:00,
2013-08-10 04:35:00,66.3,5.7,30.13,SW,225,2.0,11.0,9,0.00,,,0.00,Wunderground v.1.15,2013-08-10 11:35:00,
2013-08-10 04:45:00,66.7,6.0,30.13,SW,225,2.0,11.0,9,0.00,,,0.00,Wunderground v.1.15,2013-08-10 11:45:00,
2013-08-10 04:50:00,66.9,6.1,30.13,SW,225,2.0,2.0,9,0.00,,,0.00,Wunderground v.1.15,2013-08-10 11:50:00,
2013-08-10 04:55:00,66.3,5.7,30.13,SW,225,2.0,4.0,9,0.00,,,0.00,Wunderground v.1.15,2013-08-10 11:55:00,
2013-08-10 05:05:00,66.1,5.5,30.13,SW,227,2.0,11.0,9,0.00,,,0.00,Wunderground v.1.15,2013-08-10 12:05:00,
2013-08-10 05:10:00,65.8,7.6,30.13,SW,231,1.0,1.0,10,0.00,,,0.00,Wunderground v.1.15,2013-08-10 12:10:00,
2013-08-10 05:15:00,65.4,7.3,30.13,SW,231,0.0,11.0,10,0.00,,,0.00,Wunderground v.1.15,2013-08-10 12:15:00,
2013-08-10 05:20:00,64.9,6.9,30.14,SW,232,0.0,6.0,10,0.00,,,0.00,Wunderground v.1.15,2013-08-10 12:20:00,
2013-08-10 05:30:00,64.4,8.7,30.14,WSW,242,1.0,1.0,11,0.00,,,0.00,Wunderground v.1.15,2013-08-10 12:30:00,
2013-08-10 05:35:00,63.7,8.1,30.14,WSW,242,1.0,5.0,11,0.00,,,0.00,Wunderground v.1.15,2013-08-10 12:35:00,
2013-08-10 05:45:00,63.4,7.9,30.15,WSW,242,1.0,5.0,11,0.00,,,0.00,Wunderground v.1.15,2013-08-10 12:45:00,
2013-08-10 05:50:00,63.4,9.8,30.15,WSW,242,2.0,2.0,12,0.00,,,0.00,Wunderground v.1.15,2013-08-10 12:50:00,
2013-08-10 06:00:00,63.7,10.1,30.15,WSW,242,0.0,5.0,12,0.00,,,0.00,Wunderground v.1.15,2013-08-10 13:00:00,
2013-08-10 06:05:00,63.9,10.2,30.15,WSW,242,0.0,5.0,12,0.00,,,0.00,Wunderground v.1.15,2013-08-10 13:05:00,
2013-08-10 06:15:00,64.7,10.8,30.16,WSW,242,0.0,4.0,12,0.00,,,0.00,Wunderground v.1.15,2013-08-10 13:15:00,
2013-08-10 06:20:00,64.6,10.8,30.16,WSW,242,0.0,4.0,12,0.00,,,0.00,Wunderground v.1.15,2013-08-10 13:20:00,
2013-08-10 06:30:00,65.7,13.4,30.16,WSW,242,0.0,4.0,13,0.00,,,0.00,Wunderground v.1.15,2013-08-10 13:30:00,
2013-08-10 06:35:00,66.0,13.7,30.16,WSW,242,0.0,4.0,13,0.00,,,0.00,Wunderground v.1.15,2013-08-10 13:35:00,
2013-08-10 06:45:00,65.9,15.3,30.17,WSW,242,0.0,2.0,14,0.00,,,0.00,Wunderground v.1.15,2013-08-10 13:45:00,
2013-08-10 06:50:00,66.1,17.0,30.17,WSW,242,0.0,2.0,15,0.00,,,0.00,Wunderground v.1.15,2013-08-10 13:50:00,
2013-08-10 07:00:00,65.4,16.5,30.17,WSW,242,0.0,2.0,15,0.00,,,0.00,Wunderground v.1.15,2013-08-10 14:00:00,
2013-08-10 07:05:00,65.9,16.9,30.17,WSW,242,0.0,2.0,15,0.00,,,0.00,Wunderground v.1.15,2013-08-10 14:05:00,
2013-08-10 07:15:00,67.4,19.6,30.17,WSW,242,0.0,0.0,16,0.00,,,0.00,Wunderground v.1.15,2013-08-10 14:15:00,
2013-08-10 07:20:00,68.2,21.7,30.17,WSW,242,0.0,0.0,17,0.00,,,0.00,Wunderground v.1.15,2013-08-10 14:20:00,
2013-08-10 07:30:00,70.1,24.6,30.18,WSW,242,0.0,0.0,18,0.00,,,0.00,Wunderground v.1.15,2013-08-10 14:30:00,
2013-08-10 07:35:00,71.9,27.4,30.18,WSW,242,0.0,0.0,19,0.00,,,0.00,Wunderground v.1.15,2013-08-10 14:35:00,
2013-08-10 07:45:00,73.0,28.3,30.18,WSW,242,0.0,0.0,19,0.00,,,0.00,Wunderground v.1.15,2013-08-10 14:45:00,
2013-08-10 07:50:00,73.2,28.4,30.18,SW,231,1.0,1.0,19,0.00,,,0.00,Wunderground v.1.15,2013-08-10 14:50:00,
2013-08-10 07:55:00,73.4,27.3,30.18,SW,226,1.0,1.0,18,0.00,,,0.00,Wunderground v.1.15,2013-08-10 14:55:00,
2013-08-10 08:00:00,73.6,27.4,30.18,SW,215,0.0,0.0,18,0.00,,,0.00,Wunderground v.1.15,2013-08-10 15:00:00,
2013-08-10 08:05:00,73.6,27.4,30.18,SSW,201,1.0,1.0,18,0.00,,,0.00,Wunderground v.1.15,2013-08-10 15:05:00,
2013-08-10 08:15:00,73.6,27.4,30.18,South,175,1.0,5.0,18,0.00,,,0.00,Wunderground v.1.15,2013-08-10 15:15:00,
2013-08-10 08:20:00,73.7,26.1,30.18,SSE,163,2.0,5.0,17,0.00,,,0.00,Wunderground v.1.15,2013-08-10 15:20:00,
2013-08-10 08:25:00,73.9,27.7,30.19,SSE,150,3.0,5.0,18,0.00,,,0.00,Wunderground v.1.15,2013-08-10 15:25:00,
2013-08-10 08:30:00,73.9,27.7,30.18,SSE,149,3.0,3.0,18,0.00,,,0.00,Wunderground v.1.15,2013-08-10 15:30:00,
2013-08-10 08:35:00,74.3,28.0,30.18,SSE,149,3.0,7.0,18,0.00,,,0.00,Wunderground v.1.15,2013-08-10 15:35:00,
2013-08-10 08:45:00,75.4,27.5,30.18,SE,140,2.0,4.0,17,0.00,,,0.00,Wunderground v.1.15,2013-08-10 15:45:00,
2013-08-10 08:50:00,75.5,26.1,30.18,SE,145,3.0,7.0,16,0.00,,,0.00,Wunderground v.1.15,2013-08-10 15:50:00,
2013-08-10 09:00:00,75.7,26.3,30.18,SSE,166,5.0,5.0,16,0.00,,,0.00,Wunderground v.1.15,2013-08-10 16:00:00,
2013-08-10 09:05:00,75.8,26.4,30.18,SSE,162,5.0,7.0,16,0.00,,,0.00,Wunderground v.1.15,2013-08-10 16:05:00,
2013-08-10 09:15:00,76.6,27.0,30.18,SSE,147,4.0,9.0,16,0.00,,,0.00,Wunderground v.1.15,2013-08-10 16:15:00,
2013-08-10 09:20:00,76.5,26.9,30.18,SSE,151,5.0,10.0,16,0.00,,,0.00,Wunderground v.1.15,2013-08-10 16:20:00,
2013-08-10 09:30:00,76.9,25.7,30.18,SE,140,5.0,5.0,15,0.00,,,0.00,Wunderground v.1.15,2013-08-10 16:30:00,
2013-08-10 09:35:00,76.6,25.5,30.18,SSE,164,6.0,6.0,15,0.00,,,0.00,Wunderground v.1.15,2013-08-10 16:35:00,
2013-08-10 09:45:00,76.6,25.5,30.18,SE,132,5.0,11.0,15,0.00,,,0.00,Wunderground v.1.15,2013-08-10 16:45:00,
2013-08-10 09:50:00,76.9,25.7,30.18,SE,144,5.0,11.0,15,0.00,,,0.00,Wunderground v.1.15,2013-08-10 16:50:00,
2013-08-10 10:00:00,77.6,26.3,30.18,SSE,154,5.0,11.0,15,0.00,,,0.00,Wunderground v.1.15,2013-08-10 17:00:00,
2013-08-10 10:05:00,77.4,26.1,30.18,SSW,198,4.0,11.0,15,0.00,,,0.00,Wunderground v.1.15,2013-08-10 17:05:00,
2013-08-10 10:10:00,77.9,26.5,30.19,SE,135,4.0,10.0,15,0.00,,,0.00,Wunderground v.1.15,2013-08-10 17:10:00,
2013-08-10 10:15:00,78.2,26.7,30.18,SE,144,4.0,10.0,15,0.00,,,0.00,Wunderground v.1.15,2013-08-10 17:15:00,
2013-08-10 10:20:00,78.2,26.7,30.18,SSE,156,5.0,10.0,15,0.00,,,0.00,Wunderground v.1.15,2013-08-10 17:20:00,
2013-08-10 10:30:00,78.8,27.2,30.19,SSE,149,4.0,10.0,15,0.00,,,0.00,Wunderground v.1.15,2013-08-10 17:30:00,
2013-08-10 10:35:00,79.1,27.5,30.18,SSE,148,4.0,10.0,15,0.00,,,0.00,Wunderground v.1.15,2013-08-10 17:35:00,
2013-08-10 10:45:00,79.5,27.8,30.18,SSE,156,3.0,10.0,15,0.00,,,0.00,Wunderground v.1.15,2013-08-10 17:45:00,
2013-08-10 10:50:00,80.0,26.5,30.18,SSE,158,4.0,10.0,14,0.00,,,0.00,Wunderground v.1.15,2013-08-10 17:50:00,
2013-08-10 10:55:00,80.2,26.7,30.19,SSE,150,4.0,10.0,14,0.00,,,0.00,Wunderground v.1.15,2013-08-10 17:55:00,
2013-08-10 11:00:00,80.5,26.9,30.19,SSE,161,4.0,10.0,14,0.00,,,0.00,Wunderground v.1.15,2013-08-10 18:00:00,
2013-08-10 11:10:00,80.4,26.8,30.18,SE,134,4.0,10.0,14,0.00,,,0.00,Wunderground v.1.15,2013-08-10 18:10:00,
2013-08-10 11:15:00,81.1,27.4,30.18,SSE,165,4.0,10.0,14,0.00,,,0.00,Wunderground v.1.15,2013-08-10 18:15:00,
2013-08-10 11:20:00,81.7,27.8,30.18,SSE,164,4.0,4.0,14,0.00,,,0.00,Wunderground v.1.15,2013-08-10 18:20:00,
2013-08-10 11:30:00,81.6,27.8,30.18,SSE,163,4.0,10.0,14,0.00,,,0.00,Wunderground v.1.15,2013-08-10 18:30:00,
2013-08-10 11:35:00,81.3,27.5,30.18,SE,143,5.0,10.0,14,0.00,,,0.00,Wunderground v.1.15,2013-08-10 18:35:00,
2013-08-10 11:45:00,82.2,28.2,30.18,East,89,4.0,10.0,14,0.00,,,0.00,Wunderground v.1.15,2013-08-10 18:45:00,
2013-08-10 11:50:00,82.9,27.0,30.18,NNW,331,3.0,10.0,13,0.00,,,0.00,Wunderground v.1.15,2013-08-10 18:50:00,
2013-08-10 12:00:00,84.9,26.6,30.18,WNW,296,5.0,10.0,12,0.00,,,0.00,Wunderground v.1.15,2013-08-10 19:00:00,
2013-08-10 12:05:00,85.0,26.7,30.18,NNW,339,6.0,14.0,12,0.00,,,0.00,Wunderground v.1.15,2013-08-10 19:05:00,
2013-08-10 12:15:00,84.8,28.5,30.18,West,275,8.0,14.0,13,0.00,,,0.00,Wunderground v.1.15,2013-08-10 19:15:00,
2013-08-10 12:20:00,84.8,28.5,30.17,West,272,7.0,7.0,13,0.00,,,0.00,Wunderground v.1.15,2013-08-10 19:20:00,
2013-08-10 12:30:00,85.0,26.7,30.17,WSW,247,8.0,8.0,12,0.00,,,0.00,Wunderground v.1.15,2013-08-10 19:30:00,
2013-08-10 12:40:00,84.9,26.6,30.17,WSW,246,7.0,7.0,12,0.00,,,0.00,Wunderground v.1.15,2013-08-10 19:40:00,
2013-08-10 12:45:00,85.0,26.7,30.17,WNW,300,7.0,9.0,12,0.00,,,0.00,Wunderground v.1.15,2013-08-10 19:45:00,
2013-08-10 12:50:00,84.8,26.5,30.17,WNW,289,6.0,20.0,12,0.00,,,0.00,Wunderground v.1.15,2013-08-10 19:50:00,
2013-08-10 13:00:00,85.7,25.1,30.17,NW,310,6.0,6.0,11,0.00,,,0.00,Wunderground v.1.15,2013-08-10 20:00:00,
2013-08-10 13:05:00,86.1,25.4,30.16,West,278,7.0,7.0,11,0.00,,,0.00,Wunderground v.1.15,2013-08-10 20:05:00,
2013-08-10 13:15:00,85.9,25.3,30.16,NNW,331,9.0,16.0,11,0.00,,,0.00,Wunderground v.1.15,2013-08-10 20:15:00,
2013-08-10 13:20:00,85.3,24.8,30.16,NNW,329,10.0,10.0,11,0.00,,,0.00,Wunderground v.1.15,2013-08-10 20:20:00,
2013-08-10 13:30:00,85.5,25.0,30.16,WNW,298,8.0,8.0,11,0.00,,,0.00,Wunderground v.1.15,2013-08-10 20:30:00,
2013-08-10 13:35:00,86.3,25.6,30.16,NW,306,8.0,13.0,11,0.00,,,0.00,Wunderground v.1.15,2013-08-10 20:35:00,
2013-08-10 13:45:00,85.4,24.9,30.16,NW,304,10.0,18.0,11,0.00,,,0.00,Wunderground v.1.15,2013-08-10 20:45:00,
2013-08-10 13:50:00,86.0,23.1,30.16,West,267,9.0,18.0,10,0.00,,,0.00,Wunderground v.1.15,2013-08-10 20:50:00,
2013-08-10 14:00:00,86.1,23.1,30.15,West,267,8.0,18.0,10,0.00,,,0.00,Wunderground v.1.15,2013-08-10 21:00:00,
2013-08-10 14:05:00,86.4,23.4,30.15,WNW,303,7.0,18.0,10,0.00,,,0.00,Wunderground v.1.15,2013-08-10 21:05:00,
2013-08-10 14:15:00,85.9,23.0,30.15,WNW,292,8.0,18.0,10,0.00,,,0.00,Wunderground v.1.15,2013-08-10 21:15:00,
2013-08-10 14:20:00,86.0,25.4,30.15,West,262,7.0,18.0,11,0.00,,,0.00,Wunderground v.1.15,2013-08-10 21:20:00,
2013-08-10 14:30:00,87.0,23.8,30.15,NNW,346,7.0,18.0,10,0.00,,,0.00,Wunderground v.1.15,2013-08-10 21:30:00,
2013-08-10 14:35:00,86.9,26.0,30.15,NW,315,7.0,18.0,11,0.00,,,0.00,Wunderground v.1.15,2013-08-10 21:35:00,
2013-08-10 14:45:00,86.9,26.0,30.15,WNW,302,8.0,17.0,11,0.00,,,0.00,Wunderground v.1.15,2013-08-10 21:45:00,
2013-08-10 14:50:00,86.3,25.6,30.15,NW,308,8.0,8.0,11,0.00,,,0.00,Wunderground v.1.15,2013-08-10 21:50:00,
2013-08-10 14:55:00,86.1,27.5,30.15,NW,312,9.0,11.0,12,0.00,,,0.00,Wunderground v.1.15,2013-08-10 21:55:00,
2013-08-10 15:00:00,86.4,25.7,30.15,NNW,332,9.0,17.0,11,0.00,,,0.00,Wunderground v.1.15,2013-08-10 22:00:00,
2013-08-10 15:05:00,87.0,26.1,30.15,NW,310,8.0,18.0,11,0.00,,,0.00,Wunderground v.1.15,2013-08-10 22:05:00,
2013-08-10 15:15:00,87.8,26.7,30.15,NNW,348,6.0,18.0,11,0.00,,,0.00,Wunderground v.1.15,2013-08-10 22:15:00,
2013-08-10 15:20:00,87.8,26.7,30.14,NNW,337,7.0,18.0,11,0.00,,,0.00,Wunderground v.1.15,2013-08-10 22:20:00,
2013-08-10 15:30:00,87.0,28.2,30.14,WNW,285,8.0,8.0,12,0.00,,,0.00,Wunderground v.1.15,2013-08-10 22:30:00,
2013-08-10 15:35:00,86.8,28.1,30.13,WSW,243,7.0,11.0,12,0.00,,,0.00,Wunderground v.1.15,2013-08-10 22:35:00,
2013-08-10 15:40:00,87.3,28.5,30.14,NW,310,7.0,15.0,12,0.00,,,0.00,Wunderground v.1.15,2013-08-10 22:40:00,
2013-08-10 15:50:00,86.3,29.6,30.13,NW,318,9.0,15.0,13,0.00,,,0.00,Wunderground v.1.15,2013-08-10 22:50:00,
2013-08-10 15:55:00,86.5,29.8,30.13,NNW,329,9.0,15.0,13,0.00,,,0.00,Wunderground v.1.15,2013-08-10 22:55:00,
2013-08-10 16:00:00,86.5,29.8,30.13,NNW,342,9.0,15.0,13,0.00,,,0.00,Wunderground v.1.15,2013-08-10 23:00:00,
2013-08-10 16:05:00,86.4,29.7,30.13,WNW,298,8.0,18.0,13,0.00,,,0.00,Wunderground v.1.15,2013-08-10 23:05:00,
2013-08-10 16:15:00,85.9,29.3,30.13,NW,318,9.0,18.0,13,0.00,,,0.00,Wunderground v.1.15,2013-08-10 23:15:00,
2013-08-10 16:20:00,85.7,31.0,30.13,NNW,333,10.0,18.0,14,0.00,,,0.00,Wunderground v.1.15,2013-08-10 23:20:00,
2013-08-10 16:30:00,85.7,31.0,30.13,NNW,333,10.0,18.0,14,0.00,,,0.00,Wunderground v.1.15,2013-08-10 23:30:00,
2013-08-10 16:35:00,85.3,32.4,30.12,NNW,336,9.0,21.0,15,0.00,,,0.00,Wunderground v.1.15,2013-08-10 23:35:00,
2013-08-10 16:45:00,85.6,32.6,30.12,NNW,338,8.0,13.0,15,0.00,,,0.00,Wunderground v.1.15,2013-08-10 23:45:00,
2013-08-10 16:50:00,85.0,30.4,30.12,NNW,335,9.0,21.0,14,0.00,,,0.00,Wunderground v.1.15,2013-08-10 23:50:00,
2013-08-10 17:00:00,84.6,31.8,30.12,NNW,347,9.0,9.0,15,0.00,,,0.00,Wunderground v.1.15,2013-08-11 00:00:00,
2013-08-10 17:05:00,84.6,30.1,30.12,NNW,327,9.0,13.0,14,0.00,,,0.00,Wunderground v.1.15,2013-08-11 00:05:00,
2013-08-10 17:15:00,84.6,31.8,30.12,North,6,8.0,20.0,15,0.00,,,0.00,Wunderground v.1.15,2013-08-11 00:15:00,
2013-08-10 17:20:00,84.6,30.1,30.12,NW,311,8.0,20.0,14,0.00,,,0.00,Wunderground v.1.15,2013-08-11 00:20:00,
2013-08-10 17:25:00,84.5,31.8,30.12,NW,316,8.0,20.0,15,0.00,,,0.00,Wunderground v.1.15,2013-08-11 00:25:00,
2013-08-10 17:30:00,84.4,30.0,30.12,WNW,289,7.0,7.0,14,0.00,,,0.00,Wunderground v.1.15,2013-08-11 00:30:00,
2013-08-10 17:35:00,84.3,31.6,30.12,WNW,300,7.0,14.0,15,0.00,,,0.00,Wunderground v.1.15,2013-08-11 00:35:00,
2013-08-10 17:45:00,84.3,31.6,30.12,WNW,290,5.0,14.0,15,0.00,,,0.00,Wunderground v.1.15,2013-08-11 00:45:00,
2013-08-10 17:50:00,84.2,31.5,30.12,WNW,294,6.0,14.0,15,0.00,,,0.00,Wunderground v.1.15,2013-08-11 00:50:00,
2013-08-10 18:00:00,83.9,31.3,30.12,NW,325,6.0,14.0,15,0.00,,,0.00,Wunderground v.1.15,2013-08-11 01:00:00,
2013-08-10 18:05:00,83.8,31.2,30.12,North,354,6.0,14.0,15,0.00,,,0.00,Wunderground v.1.15,2013-08-11 01:05:00,
2013-08-10 18:15:00,83.3,30.8,30.11,NNW,331,7.0,7.0,15,0.00,,,0.00,Wunderground v.1.15,2013-08-11 01:15:00,
2013-08-10 18:20:00,82.9,32.1,30.11,NNW,336,8.0,13.0,16,0.00,,,0.00,Wunderground v.1.15,2013-08-11 01:20:00,
2013-08-10 18:30:00,82.7,31.9,30.11,NW,312,8.0,8.0,16,0.00,,,0.00,Wunderground v.1.15,2013-08-11 01:30:00,
2013-08-10 18:35:00,82.7,31.9,30.11,NW,325,7.0,14.0,16,0.00,,,0.00,Wunderground v.1.15,2013-08-11 01:35:00,
2013-08-10 18:45:00,82.5,31.8,30.11,NW,312,6.0,14.0,16,0.00,,,0.00,Wunderground v.1.15,2013-08-11 01:45:00,
2013-08-10 18:50:00,82.3,33.1,30.11,NW,324,6.0,6.0,17,0.00,,,0.00,Wunderground v.1.15,2013-08-11 01:50:00,
2013-08-10 18:55:00,82.3,31.6,30.11,NNW,328,5.0,9.0,16,0.00,,,0.00,Wunderground v.1.15,2013-08-11 01:55:00,
2013-08-10 19:00:00,81.8,32.7,30.11,NW,320,6.0,14.0,17,0.00,,,0.00,Wunderground v.1.15,2013-08-11 02:00:00,
2013-08-10 19:10:00,81.1,33.6,30.12,NNW,333,7.0,14.0,18,0.00,,,0.00,Wunderground v.1.15,2013-08-11 02:10:00,
2013-08-10 19:15:00,81.0,33.5,30.12,NW,322,6.0,14.0,18,0.00,,,0.00,Wunderground v.1.15,2013-08-11 02:15:00,
2013-08-10 19:20:00,80.9,33.4,30.12,NW,315,5.0,14.0,18,0.00,,,0.00,Wunderground v.1.15,2013-08-11 02:20:00,
2013-08-10 19:30:00,80.2,32.8,30.12,NW,306,3.0,14.0,18,0.00,,,0.00,Wunderground v.1.15,2013-08-11 02:30:00,
2013-08-10 19:35:00,79.8,33.9,30.12,NW,316,2.0,14.0,19,0.00,,,0.00,Wunderground v.1.15,2013-08-11 02:35:00,
2013-08-10 19:40:00,79.3,34.7,30.12,WNW,289,1.0,1.0,20,0.00,,,0.00,Wunderground v.1.15,2013-08-11 02:40:00,
2013-08-10 19:50:00,78.6,34.2,30.12,NNW,327,1.0,12.0,20,0.00,,,0.00,Wunderground v.1.15,2013-08-11 02:50:00,
2013-08-10 20:00:00,78.2,35.0,30.12,NW,318,3.0,12.0,21,0.00,,,0.00,Wunderground v.1.15,2013-08-11 03:00:00,
2013-08-10 20:10:00,77.9,33.6,30.12,NW,306,1.0,1.0,20,0.00,,,0.00,Wunderground v.1.15,2013-08-11 03:10:00,
2013-08-10 20:15:00,77.7,34.6,30.12,NW,306,0.0,9.0,21,0.00,,,0.00,Wunderground v.1.15,2013-08-11 03:15:00,
2013-08-10 20:25:00,77.6,33.3,30.12,NNW,327,1.0,9.0,20,0.00,,,0.00,Wunderground v.1.15,2013-08-11 03:25:00,
2013-08-10 20:30:00,77.6,33.3,30.13,NW,325,1.0,9.0,20,0.00,,,0.00,Wunderground v.1.15,2013-08-11 03:30:00,
2013-08-10 20:40:00,77.4,33.2,30.13,NW,323,1.0,1.0,20,0.00,,,0.00,Wunderground v.1.15,2013-08-11 03:40:00,
2013-08-10 20:45:00,76.8,33.9,30.13,NW,325,0.0,2.0,21,0.00,,,0.00,Wunderground v.1.15,2013-08-11 03:45:00,
2013-08-10 20:55:00,76.2,34.6,30.14,NNW,331,0.0,9.0,22,0.00,,,0.00,Wunderground v.1.15,2013-08-11 03:55:00,
2013-08-10 21:00:00,75.9,35.4,30.14,NNW,331,0.0,9.0,23,0.00,,,0.00,Wunderground v.1.15,2013-08-11 04:00:00,
2013-08-10 21:05:00,75.5,35.1,30.14,NNW,331,0.0,9.0,23,0.00,,,0.00,Wunderground v.1.15,2013-08-11 04:05:00,
2013-08-10 21:10:00,75.4,35.0,30.14,NNW,331,0.0,4.0,23,0.00,,,0.00,Wunderground v.1.15,2013-08-11 04:10:00,
2013-08-10 21:15:00,75.1,34.8,30.14,NNW,331,0.0,4.0,23,0.00,,,0.00,Wunderground v.1.15,2013-08-11 04:15:00,
2013-08-10 21:20:00,74.8,35.6,30.14,NNW,331,0.0,4.0,24,0.00,,,0.00,Wunderground v.1.15,2013-08-11 04:20:00,
2013-08-10 21:25:00,74.6,34.3,30.14,NNW,331,0.0,4.0,23,0.00,,,0.00,Wunderground v.1.15,2013-08-11 04:25:00,
2013-08-10 21:30:00,74.4,34.2,30.15,NNW,331,0.0,4.0,23,0.00,,,0.00,Wunderground v.1.15,2013-08-11 04:30:00,
2013-08-10 21:35:00,74.3,34.1,30.14,NNW,332,0.0,4.0,23,0.00,,,0.00,Wunderground v.1.15,2013-08-11 04:35:00,
2013-08-10 21:45:00,74.4,33.1,30.15,NNW,332,0.0,0.0,22,0.00,,,0.00,Wunderground v.1.15,2013-08-11 04:45:00,
2013-08-10 21:50:00,74.4,33.1,30.15,NNW,332,0.0,0.0,22,0.00,,,0.00,Wunderground v.1.15,2013-08-11 04:50:00,
2013-08-10 21:55:00,74.4,33.1,30.14,NNW,332,0.0,0.0,22,0.00,,,0.00,Wunderground v.1.15,2013-08-11 04:55:00,
2013-08-10 22:00:00,74.2,32.9,30.15,NNW,332,0.0,0.0,22,0.00,,,0.00,Wunderground v.1.15,2013-08-11 05:00:00,
2013-08-10 22:10:00,73.7,32.5,30.15,NNW,332,0.0,0.0,22,0.00,,,0.00,Wunderground v.1.15,2013-08-11 05:10:00,
2013-08-10 22:20:00,73.7,32.5,30.15,SW,229,0.0,3.0,22,0.00,,,0.00,Wunderground v.1.15,2013-08-11 05:20:00,
2013-08-10 22:30:00,75.4,31.5,30.15,West,267,1.0,1.0,20,0.00,,,0.00,Wunderground v.1.15,2013-08-11 05:30:00,
2013-08-10 22:35:00,74.8,32.2,30.15,West,268,1.0,6.0,21,0.00,,,0.00,Wunderground v.1.15,2013-08-11 05:35:00,
2013-08-10 22:40:00,74.2,31.7,30.15,West,267,1.0,1.0,21,0.00,,,0.00,Wunderground v.1.15,2013-08-11 05:40:00,
2013-08-10 22:50:00,73.9,31.5,30.15,West,269,1.0,6.0,21,0.00,,,0.00,Wunderground v.1.15,2013-08-11 05:50:00,
2013-08-10 22:55:00,73.8,31.4,30.15,West,267,2.0,6.0,21,0.00,,,0.00,Wunderground v.1.15,2013-08-11 05:55:00,
2013-08-10 23:00:00,73.9,31.5,30.15,West,267,2.0,6.0,21,0.00,,,0.00,Wunderground v.1.15,2013-08-11 06:00:00,
2013-08-10 23:05:00,73.9,31.5,30.15,West,268,1.0,6.0,21,0.00,,,0.00,Wunderground v.1.15,2013-08-11 06:05:00,
2013-08-10 23:15:00,73.9,31.5,30.15,West,264,2.0,6.0,21,0.00,,,0.00,Wunderground v.1.15,2013-08-11 06:15:00,
2013-08-10 23:20:00,73.9,31.5,30.15,West,269,2.0,2.0,21,0.00,,,0.00,Wunderground v.1.15,2013-08-11 06:20:00,
2013-08-10 23:30:00,73.7,31.3,30.15,West,270,0.0,6.0,21,0.00,,,0.00,Wunderground v.1.15,2013-08-11 06:30:00,
2013-08-10 23:35:00,73.7,31.3,30.15,West,271,1.0,8.0,21,0.00,,,0.00,Wunderground v.1.15,2013-08-11 06:35:00,
2013-08-10 23:45:00,73.5,31.1,30.16,West,271,0.0,8.0,21,0.00,,,0.00,Wunderground v.1.15,2013-08-11 06:45:00,
2013-08-10 23:55:00,73.3,31.0,30.16,West,270,0.0,8.0,21,0.00,,,0.00,Wunderground v.1.15,2013-08-11 06:55:00,